Tracking 25710 objects as of 6-Jul-2022
HD Live streaming from Space Station
objects crossing your sky now

FENGYUN 1C DEB

Track FENGYUN 1C DEB now!
10-day predictions


NORAD ID: 29819
Int'l Code: 1999-025DM
Perigee: 759.7 km
Apogee: 1,040.0 km
Inclination: 98.7 °
Period: 102.8 minutes
Semi major axis: 7270 km
RCS: 0.055 m2 (small)
Launch date: May 10, 1999
Source: People's Republic of China (PRC)
Launch site: Taiyaun Space Center, China (TSC)

Note: This is SATELLITE DEBRIS
aabbcc
Your satellite tracking list
Your tracking list is empty




NASA's NSSDC Master Catalog

Two Line Element Set (TLE):
1 29819U 99025DM  22186.87626365  .00000343  00000-0  22233-3 0  9991
2 29819  98.7340 211.1184 0192738 335.2124 147.1593 14.00313223790331
Source of the keplerian elements: AFSPC